Вернуться в каталог

STARLINK-34520

АктивенСвязьVLEO
NORAD 64486·PAYLOAD·🇺🇸 United States

Запущен Jun 23, 2025 с Cape Canaveral Space Force Station

Loading…

Ближайшие Пролёты (ближайшие 24 часа)

TLE

СвежийSource: CelesTrak SupGP

Эпоха: Sep 14, 2026, 23:07 UTC

1 64486C 25133Q   26257.96368056  .00038005  00000+0  11242-2 0  2571
2 64486  53.1580 315.3876 0001438  87.7694 100.5752 15.34333749    15

Отслеживайте STARLINK-34520 в реальном времени с AllMySat

Download on the App Store